Weather History for KACT - January, 2012

Change the Weather History Date:

Friday, January 20, 2012

  Actual Average Record
Temperature  
Mean Temperature 59 °F 47 °F  
Max Temperature 75 °F 58 °F 81 °F (1986)
Min Temperature 42 °F 36 °F 10 °F (1940)
Degree Days  
Heating Degree Days 6 18  
Month to date heating degree days 306 365  
Since 1 July heating degree days 1132 1217  
Cooling Degree Days 0 0  
Month to date cooling degree days 1 0  
Year to date cooling degree days 1 0  
Growing Degree Days 10 (Base 50)    
Moisture  
Dew Point 55 °F    
Average Humidity 80    
Maximum Humidity 100    
Minimum Humidity 60    
Precipitation  
Precipitation 0.00 in 0.08 in 0.70 in (1906)
Month to date precipitation 1.36 1.30  
Year to date precipitation 1.36 1.30  
Snow  
Snow 0.00 in 0.00 in 0.00 in ()
Month to date snowfall 0.0 0.2  
Since 1 July snowfall 0.0 0.3  
Snow Depth 0.00 in    
Sea Level Pressure  
Sea Level Pressure 29.79 in    
Wind  
Wind Speed 11 mph (South)    
Max Wind Speed 22 mph    
Max Gust Speed 30 mph    
Visibility 4 miles    
Events Fog    
T = Trace of Precipitation, MM = Missing Value Source: NWS Daily Summary

Daily Weather History Graph

Daily Weather History Graph

Search for Another Location

Airport or City:

Trip Planner

Search our weather history database for the weather conditions in past years. The results will help you decide how hot, cold, wet, or windy it might be!

Date:

Astronomy

Jan. 20, 2012 Rise Set
Actual Time 7:27 AM CST 5:52 PM CST
Civil Twilight 7:01 AM CST 6:18 PM CST
Nautical Twilight 6:32 AM CST 6:47 PM CST
Astronomical Twilight 6:02 AM CST 7:17 PM CST
Moon 5:02 AM CST (1/20) 3:29 PM CST (1/20)
Length of Visible Light 11h 16m
Length of Day
10h 24m
Waning Crescent, 8% of the Moon is Illuminated
Jan 20
Waning Crescent
Jan 23
New
Jan 30
First Quarter
Feb 7
Full
Feb 14
Last Quarter

Hourly Weather History & Observations

Time (CST) Temp. Windchill Dew Point Humidity Pressure Visibility Wind Dir Wind Speed Gust Speed Precip Events Conditions
12:51 AM 51.1 °F - 48.0 °F 89% 29.82 in 7.0 mi North - - N/A   Clear
1:51 AM 50.0 °F - 48.0 °F 93% 29.82 in 6.0 mi South 8.1 mph - N/A   Clear
2:18 AM 48.2 °F - 48.2 °F 100% 29.82 in 0.8 mi South 4.6 mph - N/A   Clear
2:37 AM 48.2 °F - 46.4 °F 93% 29.82 in 0.5 mi Calm Calm - N/A Fog Fog
2:51 AM 50.0 °F - 48.2 °F 94% 29.81 in 0.2 mi ESE 3.5 mph - N/A Fog Fog
3:51 AM 46.9 °F - 46.0 °F 97% 29.80 in 0.2 mi Calm Calm - N/A Fog Fog
4:51 AM 44.1 °F 40.1 °F 42.1 °F 93% 29.78 in 0.2 mi South 6.9 mph - N/A Fog Fog
5:15 AM 53.6 °F - 51.8 °F 94% 29.79 in 1.0 mi South 5.8 mph - N/A   Mist
5:21 AM 53.6 °F - 51.8 °F 94% 29.79 in 2.0 mi South 6.9 mph - 0.01 in   Partly Cloudy
5:51 AM 53.1 °F - 52.0 °F 96% 29.78 in 2.0 mi South 9.2 mph - 0.01 in   Clear
6:27 AM 53.6 °F - 53.6 °F 100% 29.80 in 1.5 mi South 6.9 mph - N/A   Clear
6:51 AM 53.1 °F - 52.0 °F 96% 29.79 in 1.0 mi South 8.1 mph - N/A   Clear
7:00 AM 53.6 °F - 53.6 °F 100% 29.81 in 0.8 mi South 10.4 mph - N/A   Scattered Clouds
7:07 AM 55.4 °F - 53.6 °F 94% 29.81 in 0.8 mi South 10.4 mph - N/A   Mist
7:15 AM 57.2 °F - 55.4 °F 94% 29.82 in 1.0 mi South 9.2 mph - N/A   Mostly Cloudy
7:51 AM 59.0 °F - 57.9 °F 96% 29.81 in 1.5 mi South 12.7 mph - N/A   Overcast
8:24 AM 60.8 °F - 57.2 °F 88% 29.82 in 2.0 mi South 11.5 mph - N/A   Overcast
8:51 AM 60.1 °F - 57.9 °F 93% 29.82 in 2.5 mi South 12.7 mph - N/A   Overcast
9:03 AM 60.8 °F - 59.0 °F 94% 29.83 in 3.0 mi South 10.4 mph - N/A   Overcast
9:51 AM 63.0 °F - 59.0 °F 87% 29.84 in 4.0 mi South 15.0 mph 20.7 mph N/A   Mostly Cloudy
10:17 AM 64.4 °F - 60.8 °F 88% 29.84 in 5.0 mi South 13.8 mph - N/A   Haze
10:51 AM 66.9 °F - 60.1 °F 79% 29.82 in 5.0 mi South 15.0 mph - N/A   Haze
11:51 AM 69.1 °F - 59.0 °F 70% 29.81 in 8.0 mi South 17.3 mph - N/A   Clear
12:51 PM 71.1 °F - 59.0 °F 66% 29.76 in 10.0 mi South 16.1 mph - N/A   Clear
1:51 PM 72.0 °F - 59.0 °F 64% 29.73 in 10.0 mi South 19.6 mph - N/A   Clear
2:51 PM 75.0 °F - 60.1 °F 60% 29.70 in 10.0 mi South 18.4 mph - N/A   Clear
3:51 PM 73.0 °F - 61.0 °F 66% 29.71 in 9.0 mi South 17.3 mph - N/A   Clear
4:51 PM 71.6 °F - 60.8 °F 69% 29.73 in 7.0 mi South 20.7 mph - N/A   Clear
5:51 PM 68.0 °F - 59.0 °F 73% 29.73 in 4.0 mi South 12.7 mph - N/A   Haze
6:51 PM 66.0 °F - 59.0 °F 78% 29.74 in 5.0 mi South 9.2 mph - N/A   Haze
7:51 PM 66.2 °F - 59.0 °F 78% 29.76 in 5.0 mi SSW 11.5 mph - N/A   Haze
8:51 PM 62.1 °F - 57.9 °F 86% 29.77 in 5.0 mi South 6.9 mph - N/A   Clear
9:51 PM 62.1 °F - 57.9 °F 86% 29.78 in 4.0 mi SSW 10.4 mph - N/A   Clear
10:51 PM 61.0 °F - 57.9 °F 90% 29.79 in 3.0 mi SSW 9.2 mph - N/A   Clear
11:51 PM 60.1 °F - 57.0 °F 90% 29.84 in 3.0 mi Calm Calm - N/A   Partly Cloudy